Location: Unspecified
(56.5167°N, 0.0000°E)
Time: 20:55:18
(UTC+01:00)

Cosmos 1674 - Visible Passes

Search period start: 22 December 2014 00:00
Search period end: 01 January 2015 00:00
Orbit: 510 x 538 km, 82.5° (Epoch: 22 December)

Date Brightness Start Highest point End Pass type
(mag) Time Alt. Az. Time Alt. Az. Time Alt. Az.
22 Dec 3.8 08:38:13 10° N 08:41:56 43° ENE 08:45:38 10° SE visible
23 Dec 4.0 08:25:57 10° N 08:29:37 40° ENE 08:33:17 10° SE visible
24 Dec 4.2 08:13:41 10° N 08:17:17 36° ENE 08:20:54 10° SE visible
25 Dec 4.3 08:01:23 10° N 08:04:56 33° ENE 08:08:29 10° SE visible
26 Dec 4.5 07:49:04 10° N 07:52:33 31° ENE 07:56:02 10° SE visible
27 Dec 4.6 07:36:44 10° N 07:40:08 28° ENE 07:43:33 10° SE visible
28 Dec 4.8 07:24:23 10° N 07:27:43 26° ENE 07:31:02 10° SE visible
29 Dec 4.9 07:12:02 10° N 07:15:15 24° ENE 07:18:29 10° ESE visible
30 Dec 5.1 06:59:40 10° N 07:02:46 22° ENE 07:05:53 10° ESE visible
30 Dec 3.0 08:35:09 10° NNW 08:38:57 51° W 08:42:44 10° S visible
31 Dec 5.2 06:47:16 10° NNE 06:50:16 21° ENE 06:53:16 10° ESE visible
31 Dec 2.9 08:22:40 10° NNW 08:26:30 56° W 08:30:20 10° S visible
